Weather History for Port Angeles, WA

Change the Weather History Date:

Friday, January 31, 2014

  Actual Average Record
Temperature  
Mean Temperature 36 °F -  
Max Temperature 43 °F 46 °F 62 °F (1960)
Min Temperature 30 °F 33 °F 12 °F (1950)
Degree Days  
Heating Degree Days 28    
Moisture  
Dew Point 31 °F    
Average Humidity 80    
Maximum Humidity 100    
Minimum Humidity 53    
Precipitation  
Precipitation 0.02 in - - ()
Sea Level Pressure  
Sea Level Pressure 30.08 in    
Wind  
Wind Speed 5 mph (South)    
Max Wind Speed 8 mph    
Max Gust Speed -    
Visibility 10 miles    
Events Rain    
Averages and records for this station are not official NWS values.
T = Trace of Precipitation, MM = Missing Value Source: NWS Daily Summary

Daily Weather History Graph

Daily Weather History Graph

Search for Another Location

Airport:

Trip Planner

Search our weather history database for the weather conditions in past years. The results will help you decide how hot, cold, wet, or windy it might be!

Date:

Astronomy

Jan. 31, 2014 Rise Set
Actual Time 7:43 AM PST 5:12 PM PST
Civil Twilight 7:09 AM PST 5:45 PM PST
Nautical Twilight 6:32 AM PST 6:23 PM PST
Astronomical Twilight 5:55 AM PST 6:59 PM PST
Moon 7:48 AM PST (1/31) 6:54 PM PST (1/31)
Length of Visible Light 10h 36m
Length of Day
9h 29m
New Moon, 1% of the Moon is Illuminated
Jan 31
New Moon
Feb 6
First Quarter
Feb 14
Full
Feb 22
Last Quarter
Mar 1
New

Hourly Weather History & Observations

Time (PST) Temp. Windchill Dew Point Humidity Pressure Visibility Wind Dir Wind Speed Gust Speed Precip Events Conditions
12:53 AM 39.0 °F 35.7 °F 37.0 °F 93% 29.96 in 10.0 mi Variable 4.6 mph - 0.01 in   Overcast
1:53 AM 37.9 °F 32.7 °F 35.1 °F 89% 29.97 in 10.0 mi WSW 6.9 mph - 0.00 in   Overcast
2:53 AM 37.0 °F 31.6 °F 35.1 °F 93% 29.99 in 10.0 mi WSW 6.9 mph - 0.00 in Rain Light Rain
3:42 AM 37.0 °F 31.6 °F 34.0 °F 89% 29.99 in 10.0 mi WSW 6.9 mph - 0.01 in   Overcast
3:53 AM 37.0 °F 33.3 °F 34.0 °F 89% 30.00 in 10.0 mi West 4.6 mph - 0.01 in   Overcast
4:53 AM 35.1 °F 32.2 °F 34.0 °F 96% 30.01 in 10.0 mi Variable 3.5 mph - N/A   Overcast
5:53 AM 34.0 °F 29.8 °F 34.0 °F 100% 30.02 in 10.0 mi SSW 4.6 mph - N/A   Overcast
6:53 AM 30.9 °F - 28.9 °F 92% 30.04 in 10.0 mi Calm Calm - N/A   Clear
7:53 AM 30.9 °F - 30.0 °F 96% 30.06 in 10.0 mi Calm Calm - N/A   Mostly Cloudy
8:53 AM 34.0 °F 31.0 °F 32.0 °F 92% 30.08 in 9.0 mi South 3.5 mph - N/A   Overcast
9:53 AM 41.0 °F 39.0 °F 34.0 °F 76% 30.09 in 10.0 mi ESE 3.5 mph - N/A   Overcast
10:53 AM 42.1 °F 37.1 °F 28.0 °F 58% 30.10 in 10.0 mi East 8.1 mph - N/A   Clear
11:53 AM 43.0 °F 38.2 °F 27.0 °F 53% 30.10 in 10.0 mi East 8.1 mph - N/A   Clear
12:53 PM 43.0 °F 40.3 °F 27.0 °F 53% 30.11 in 10.0 mi Variable 4.6 mph - N/A   Clear
1:53 PM 43.0 °F 38.8 °F 28.0 °F 56% 30.11 in 10.0 mi East 6.9 mph - N/A   Clear
2:53 PM 42.1 °F 37.1 °F 28.0 °F 58% 30.12 in 10.0 mi East 8.1 mph - N/A   Clear
3:53 PM 42.1 °F 39.2 °F 28.0 °F 58% 30.13 in 10.0 mi East 4.6 mph - N/A   Partly Cloudy
4:53 PM 37.9 °F 33.5 °F 28.9 °F 70% 30.15 in 10.0 mi ESE 5.8 mph - N/A   Mostly Cloudy
5:53 PM 36.0 °F 31.1 °F 30.0 °F 79% 30.15 in 10.0 mi SE 5.8 mph - N/A   Overcast
6:53 PM 37.9 °F - 30.9 °F 76% 30.14 in 10.0 mi Calm Calm - N/A   Overcast
7:53 PM 36.0 °F - 30.9 °F 82% 30.13 in 10.0 mi Calm Calm - N/A   Overcast
8:53 PM 35.1 °F 31.0 °F 32.0 °F 89% 30.14 in 10.0 mi SW 4.6 mph - N/A   Mostly Cloudy
9:53 PM 35.1 °F 32.2 °F 32.0 °F 89% 30.15 in 10.0 mi SW 3.5 mph - N/A   Overcast
10:53 PM 37.0 °F 34.5 °F 33.1 °F 86% 30.15 in 10.0 mi WSW 3.5 mph - N/A   Overcast
11:53 PM 37.9 °F - 34.0 °F 86% 30.16 in 10.0 mi Calm Calm - N/A   Overcast